032  
ASUS43 KFSD 240810  
RWRFSD  
 
WEATHER ROUNDUP FOR SE SOUTH DAKOTA/SW MINNESOTA/NW IOWA  
NATIONAL WEATHER SERVICE SIOUX FALLS SD  
200 AM CST SAT FEB 24 2024  
 
NOTE: "FAIR" INDICATES FEW OR NO CLOUDS BELOW 12,000 FEET WITH NO  
SIGNIFICANT WEATHER AND OR S TO VISIBILITY
.  
 
 
SDZ038>040-050-052>070-240900-  
SOUTHEAST SOUTH DAKOTA  
 
CITY SKY/WX TMP DP RH WIND PRES REMARKS
 
BROOKINGS CLEAR 20 19 96 S6 30.00S WCI 12 TC -7  
CHAMBERLAIN CLEAR 27 27 100 S8 29.98F WCI 18 TC -3  
HURON CLEAR 24 21 88 S6 29.99F WCI 17 TC -4  
MITCHELL CLEAR 24 22 91 SW3 30.02F TC -4  
SIOUX FALLS CLEAR 24 20 84 CALM 30.02S TC -4  
WINNER CLEAR 33 28 81 S6 29.95F WCI 28 TC 1  
YANKTON CLEAR 22 19 89 CALM 30.04F TC -6  

 
 
MNZ071-072-080-081-089-090-097-098-240900-  
SOUTHWEST MINNESOTA  
 
CITY SKY/WX TMP DP RH WIND PRES REMARKS
 
FAIRMONT CLEAR 20 16 84 E3 30.04S TC -7  
JACKSON CLEAR 19 16 86 CALM 30.02S TC -7  
LUVERNE CLEAR 21 18 86 S3 30.03R TC -6  
MARSHALL CLEAR 18 17 96 S3 30.01F TC -8  
MONTEVIDEO CLEAR 21 18 86 CALM 30.01F TC -6  
REDWOOD FALLS CLEAR 22 17 81 CALM 30.02F TC -6  
TRACY CLEAR 19 18 93 CALM 30.01F TC -7  
WINDOM CLEAR 19 16 86 W3 30.01S TC -7  
WORTHINGTON CLEAR 19 18 95 CALM 30.01F TC -7  

 
 
IAZ001>003-012>014-020>022-031-032-NEZ013-014-SDZ071-240900-  
NORTHWEST IOWA  
 
CITY SKY/WX TMP DP RH WIND PRES REMARKS
 
CHEROKEE CLEAR 22 21 98 CALM 30.04S TC -6  
DENISON CLEAR 21 21 100 CALM 30.06R TC -6  
ESTHERVILLE CLEAR 20 16 84 NW5 30.02F WCI 13 TC -7  
MAURICE CLOUDY 25 25 100 CALM 30.03R TC -4  
SHELDON CLEAR 19 19 100 CALM 30.01S TC -7  
SIOUX CITY PTCLDY 24 22 91 CALM 30.06S TC -4  
SPENCER CLEAR 19 14 81 CALM 30.03F TC -7  
STORM LAKE CLEAR 23 23 100 N8 30.02F WCI 14 TC -5  

 
 
ABBREVIATIONS USED IN REMARKS  
TC - TEMPERATURE IN CELSIUS  
WCI - WIND CHILL INDEX  
HX - HEAT INDEX  
VSB - VISIBILITY  
 
 
 
CLICK HERE TO GO TO PREVIOUS BULLETINS.

The Nexlab SD Page
The Nexlab IA Page
The Nexlab MN Page
The Nexlab NE Page Main Text Page